current

24-hour

48-hour




Kentucky State Forecast

Western KY:
Central KY:
Eastern KY:

Specific and detailed farm-by-farm weather forecast information is available in your Point Ag Forecast. New County Ag Weather Page, Current Conditions:Kentucky
, U.S.

USDA's Kentucky Crop and Weather Report
Released: May 31, 2016 Issue: 13-16

Agricultural News: Kentucky experienced above normal temperatures and near normal 
rainfall over the past week. Precipitation for the week totaled 1.09 inches, 0.02 
inches below normal. Temperatures averaged 70 degrees for the week, 2 degrees above 
normal. Topsoil moisture was rated 3 percent short, 63 percent adequate and 34 
percent surplus. Subsoil moisture was rated 2 percent short, 70 percent adequate, and 
28 percent surplus. Days suitable for fieldwork averaged 3.1 out of a possible seven.

More here.
...or [mp3].


Mouseover to pause! Click here to zoom!

Kentucky State Forecast

Western KY:
Central KY:
Eastern KY:

Specific and detailed farm-by-farm weather forecast information is available in your Point Ag Forecast. New County Ag Weather Page, Current Conditions:Kentucky
, U.S.
Mouseover to pause! Click here to zoom!
Mouseover to pause!

981 
ASUS43 KLMK 161010
RWRKY 
KENTUCKY REGIONAL WEATHER ROUNDUP
NATIONAL WEATHER SERVICE LOUISVILLE KY
500 AM EST SAT DEC 16 2017

NOTE "FAIR" INDICATES FEW OR NO CLOUDS BELOW 12,000 FEET
WITH NO SIGNIFICANT WEATHER AND/OR OBSTRUCTIONS TO VISIBILITY.

KYZ001>023-026-027-061>063-070>075-161100-
WESTERN AND SOUTH CENTRAL KENTUCKY
  
CITY           SKY/WX    TMP DP  RH WIND       PRES   REMARKS
PADUCAH        PTCLDY    34  25  69 S6        30.13F WCI  29          
HENDERSON      CLEAR     32  27  81 S9        30.12F WCI  24          
OWENSBORO      CLEAR     31  26  82 S6        30.14S WCI  25          
HOPKINSVILLE   CLEAR     33  25  73 S10       30.16F WCI  24          
BOWLING GREEN  CLEAR     31  25  78 S7        30.18F WCI  24          
GLASGOW        CLEAR     30  24  78 S5        30.17F WCI  25          
$$

KYZ024-025-028>034-038-045-046-053-161100-
NORTH CENTRAL KENTUCKY
  
CITY           SKY/WX    TMP DP  RH WIND       PRES   REMARKS
LOUISVILLE/SDF CLEAR     36  25  64 SW12      30.12S WCI  28          
LOUISVILLE/LOU CLEAR     35  26  69 SW10      30.13S WCI  27          
FORT KNOX      CLEAR     31  23  73 S8        30.11S WCI  23          
$$

KYZ035>037-039>044-047>052-055>060-089>105-161100-
NORTHEAST KENTUCKY
  
CITY           SKY/WX    TMP DP  RH WIND       PRES   REMARKS
LEXINGTON      CLEAR     32  23  69 S10       30.12F WCI  24          
COVINGTON      CLOUDY    33  25  72 S9        30.05F WCI  25          
FRANKFORT      CLEAR     33  22  63 SW10      30.11S WCI  25          
$$

KYZ054-064>069-076>088-106>120-161100-
SOUTHEAST KENTUCKY
  
CITY           SKY/WX    TMP DP  RH WIND       PRES   REMARKS
JACKSON        CLOUDY    29  20  69 VRB3      30.14F                  
LONDON         MOCLDY    29  21  72 SW5       30.17F WCI  24          
SOMERSET       CLEAR     28  21  74 S6        30.20F WCI  22          
MIDDLESBORO    CLOUDY    22  20  92 CALM      30.22S                  
MONTICELLO     NOT AVBL                                               
$$

  


 Mouseover to pause! Click here  to zoom!


Mouseover to pause!...... Western KY .TODAY...Mostly sunny. Highs in the mid 50s. Southwest winds around 10 mph. Central KY .TODAY...Mostly sunny. Highs in the lower 50s. Southwest winds 10 to 15 mph with gusts to around 30 mph. Eastern KY .TODAY...Sunny. Highs around 50. Southwest winds around 10 mph.